When you browse on this site, cookies collect data to enhance your experience and personalize the content and advertising you see.
Visit our Privacy Policy to learn more. By continuing to use the site, you agree to this use of cookies and data.
  • In Austria
  • List of Countries
  • For 7 days
  • Water Temperature
  • Satellite Maps
  • Weather Map
  • News
  • Weather Widgets
  • user-avatar
    Login

    Hourly Weather Rondônia

    Today, 21 February, Thursday

    Time Temperature Precipitation Wind Pressure Humidity
    00:00 +23°C° 0.1 mm 0 mps 738 mmHg 98%
    01:00 +23°C° 0.1 mm 0 mps 738 mmHg 98%
    02:00 +23°C° 0.1 mm 0 mps 738 mmHg 98%
    03:00 +23°C° 0.5 mm 0 mps 738 mmHg 98%
    04:00 +23°C° 0.5 mm 0 mps 738 mmHg 98%
    05:00 +23°C° 0.5 mm 0 mps 738 mmHg 98%
    06:00 +23°C° 0.2 mm 0 mps 738 mmHg 98%
    07:00 +23°C° 0.2 mm 0 mps 739 mmHg 97%
    08:00 +23°C° 0.2 mm 0 mps 739 mmHg 97%
    09:00 +26°C° 0.5 mm 1 mps 739 mmHg 96%
    10:00 +26°C° 0.5 mm 1 mps 740 mmHg 95%
    11:00 +26°C° 0.5 mm 1 mps 740 mmHg 94%
    12:00 +28°C° 0 mm 1 mps 739 mmHg 84%
    13:00 +30°C° 0 mm 1 mps 739 mmHg 75%
    14:00 +31°C° 0 mm 1 mps 738 mmHg 65%
    15:00 +32°C° 0 mm 1 mps 737 mmHg 64%
    16:00 +32°C° 0 mm 1 mps 737 mmHg 62%
    17:00 +33°C° 0 mm 1 mps 736 mmHg 60%
    18:00 +29°C° 0 mm 0 mps 736 mmHg 68%
    19:00 +27°C° 0 mm 0 mps 737 mmHg 76%
    20:00 +25°C° 0 mm 0 mps 737 mmHg 84%
    21:00 +24°C° 0.5 mm 0 mps 738 mmHg 87%
    22:00 +24°C° 0.5 mm 0 mps 738 mmHg 90%
    23:00 +24°C° 0.5 mm 0 mps 739 mmHg 92%

    Tomorrow, 22 February, Friday

    Time Temperature Precipitation Wind Pressure Humidity
    00:00 +23°C° 2.3 mm 0 mps 738 mmHg 94%
    01:00 +23°C° 2.3 mm 0 mps 738 mmHg 96%
    02:00 +23°C° 2.3 mm 0 mps 738 mmHg 98%
    03:00 +23°C° 0.6 mm 0 mps 738 mmHg 98%
    04:00 +23°C° 0.6 mm 0 mps 738 mmHg 98%
    05:00 +23°C° 0.6 mm 0 mps 738 mmHg 98%
    06:00 +23°C° 0.4 mm 0 mps 738 mmHg 97%
    07:00 +23°C° 0.4 mm 0 mps 739 mmHg 97%
    08:00 +24°C° 0.4 mm 0 mps 739 mmHg 97%
    09:00 +25°C° 0.4 mm 0 mps 740 mmHg 91%
    10:00 +29°C° 0.4 mm 1 mps 740 mmHg 86%
    11:00 +30°C° 0.4 mm 1 mps 740 mmHg 81%
    12:00 +31°C° 1 mm 1 mps 739 mmHg 76%
    13:00 +32°C° 1 mm 1 mps 738 mmHg 70%
    14:00 +34°C° 1 mm 1 mps 738 mmHg 65%
    15:00 +32°C° 2 mm 1 mps 737 mmHg 74%
    16:00 +31°C° 2 mm 1 mps 737 mmHg 83%
    17:00 +29°C° 2 mm 1 mps 736 mmHg 92%
    18:00 +28°C° 0.6 mm 1 mps 737 mmHg 93%
    19:00 +25°C° 0.6 mm 0 mps 737 mmHg 95%
    20:00 +24°C° 0.6 mm 0 mps 738 mmHg 96%
    21:00 +24°C° 0.1 mm 0 mps 738 mmHg 96%
    22:00 +24°C° 0.1 mm 0 mps 739 mmHg 97%
    23:00 +25°C° 0.1 mm 1 mps 740 mmHg 97%

    Day after tomorrow, 23 February, Saturday

    Time Temperature Precipitation Wind Pressure Humidity
    00:00 +25°C° 0 mm 1 mps 739 mmHg 98%
    01:00 +25°C° 0 mm 1 mps 738 mmHg 98%
    02:00 +25°C° 0 mm 1 mps 738 mmHg 98%
    03:00 +25°C° 0 mm 1 mps 738 mmHg 98%
    04:00 +22°C° 0 mm 0 mps 737 mmHg 98%
    05:00 +22°C° 0 mm 0 mps 737 mmHg 98%
    06:00 +23°C° 0 mm 0 mps 738 mmHg 96%
    07:00 +23°C° 0 mm 0 mps 738 mmHg 95%
    08:00 +24°C° 0 mm 0 mps 739 mmHg 93%
    09:00 +27°C° 0.4 mm 1 mps 739 mmHg 91%
    10:00 +28°C° 0.4 mm 1 mps 740 mmHg 89%
    11:00 +28°C° 0.4 mm 1 mps 740 mmHg 87%
    12:00 +30°C° 0.9 mm 1 mps 739 mmHg 81%
    13:00 +31°C° 0.9 mm 1 mps 738 mmHg 74%
    14:00 +32°C° 0.9 mm 1 mps 737 mmHg 67%
    15:00 +32°C° 0.5 mm 1 mps 736 mmHg 70%
    16:00 +31°C° 0.5 mm 1 mps 736 mmHg 73%
    17:00 +31°C° 0.5 mm 1 mps 735 mmHg 76%
    18:00 +29°C° 0.7 mm 1 mps 736 mmHg 83%
    19:00 +27°C° 0.7 mm 1 mps 736 mmHg 90%
    20:00 +25°C° 0.7 mm 1 mps 737 mmHg 97%
    21:00 +25°C° 0 mm 1 mps 737 mmHg 97%
    22:00 +25°C° 0 mm 1 mps 737 mmHg 97%
    23:00 +25°C° 0 mm 1 mps 738 mmHg 98%

    24 February, Sunday

    Time Temperature Precipitation Wind Pressure Humidity
    00:00 +24°C° 0 mm 1 mps 737 mmHg 98%
    01:00 +24°C° 0 mm 1 mps 737 mmHg 98%
    02:00 +24°C° 0 mm 1 mps 736 mmHg 98%
    03:00 +24°C° 0 mm 1 mps 736 mmHg 98%
    04:00 +22°C° 0 mm 0 mps 736 mmHg 98%
    05:00 +22°C° 0 mm 0 mps 736 mmHg 98%
    06:00 +24°C° 0.5 mm 1 mps 737 mmHg 97%
    07:00 +25°C° 0.5 mm 1 mps 738 mmHg 95%
    08:00 +25°C° 0.5 mm 1 mps 738 mmHg 94%
    09:00 +27°C° 0.4 mm 1 mps 738 mmHg 89%
    10:00 +28°C° 0.4 mm 1 mps 739 mmHg 83%
    11:00 +29°C° 0.4 mm 1 mps 739 mmHg 78%
    12:00 +30°C° 0.4 mm 2 mps 738 mmHg 76%
    13:00 +30°C° 0.4 mm 2 mps 737 mmHg 73%
    14:00 +31°C° 0.4 mm 2 mps 736 mmHg 71%
    15:00 +30°C° 1.3 mm 2 mps 736 mmHg 79%
    16:00 +29°C° 1.3 mm 2 mps 735 mmHg 86%
    17:00 +28°C° 1.3 mm 1 mps 735 mmHg 94%
    18:00 +27°C° 0.7 mm 1 mps 735 mmHg 95%
    19:00 +26°C° 0.7 mm 1 mps 735 mmHg 96%
    20:00 +25°C° 0.7 mm 1 mps 736 mmHg 98%
    21:00 +25°C° 0 mm 1 mps 736 mmHg 98%
    22:00 +25°C° 0 mm 1 mps 736 mmHg 98%
    23:00 +25°C° 0 mm 1 mps 737 mmHg 99%

    25 February, Monday

    Time Temperature Precipitation Wind Pressure Humidity
    00:00 +24°C° 0 mm 1 mps 736 mmHg 99%
    01:00 +24°C° 0 mm 1 mps 736 mmHg 99%
    02:00 +24°C° 0 mm 1 mps 736 mmHg 99%
    03:00 +24°C° 0 mm 1 mps 736 mmHg 99%
    04:00 +22°C° 0 mm 0 mps 736 mmHg 99%
    05:00 +22°C° 0 mm 0 mps 736 mmHg 98%
    06:00 +22°C° 0.2 mm 0 mps 737 mmHg 98%
    07:00 +24°C° 0.2 mm 1 mps 737 mmHg 98%
    08:00 +24°C° 0.2 mm 1 mps 738 mmHg 98%
    09:00 +25°C° 0.2 mm 1 mps 738 mmHg 96%
    10:00 +26°C° 0.2 mm 1 mps 738 mmHg 94%
    11:00 +27°C° 0.2 mm 1 mps 738 mmHg 92%
    12:00 +28°C° 1.6 mm 1 mps 738 mmHg 89%
    13:00 +29°C° 1.6 mm 1 mps 737 mmHg 86%
    14:00 +31°C° 1.6 mm 1 mps 736 mmHg 83%
    15:00 +30°C° 1.2 mm 1 mps 736 mmHg 86%
    16:00 +30°C° 1.2 mm 1 mps 735 mmHg 88%
    17:00 +29°C° 1.2 mm 1 mps 735 mmHg 91%
    18:00 +28°C° 0.8 mm 1 mps 735 mmHg 93%
    19:00 +27°C° 0.8 mm 1 mps 736 mmHg 95%
    20:00 +25°C° 0.8 mm 1 mps 736 mmHg 97%
    21:00 +25°C° 0 mm 1 mps 736 mmHg 97%
    22:00 +25°C° 0 mm 1 mps 737 mmHg 97%
    23:00 +24°C° 0 mm 1 mps 737 mmHg 97%

    26 February, Tuesday

    Time Temperature Precipitation Wind Pressure Humidity
    00:00 +22°C° 0 mm 0 mps 737 mmHg 98%
    01:00 +22°C° 0 mm 0 mps 737 mmHg 98%
    02:00 +21°C° 0 mm 0 mps 736 mmHg 98%
    03:00 +22°C° 0 mm 0 mps 736 mmHg 98%
    04:00 +22°C° 0 mm 0 mps 737 mmHg 97%
    05:00 +22°C° 0 mm 0 mps 737 mmHg 97%
    06:00 +22°C° 0 mm 0 mps 737 mmHg 97%
    07:00 +23°C° 0 mm 0 mps 738 mmHg 96%
    08:00 +23°C° 0 mm 0 mps 739 mmHg 95%
    09:00 +27°C° 0.2 mm 1 mps 739 mmHg 85%
    10:00 +29°C° 0.2 mm 1 mps 739 mmHg 76%
    11:00 +31°C° 0.2 mm 2 mps 739 mmHg 66%
    12:00 +31°C° 1.7 mm 2 mps 738 mmHg 74%
    13:00 +30°C° 1.7 mm 2 mps 737 mmHg 82%
    14:00 +30°C° 1.7 mm 2 mps 736 mmHg 89%
    15:00 +30°C° 1.2 mm 1 mps 736 mmHg 90%
    16:00 +29°C° 1.2 mm 1 mps 736 mmHg 92%
    17:00 +29°C° 1.2 mm 1 mps 736 mmHg 93%
    18:00 +28°C° 1.8 mm 1 mps 736 mmHg 94%
    19:00 +27°C° 1.8 mm 1 mps 737 mmHg 95%
    20:00 +25°C° 1.8 mm 1 mps 737 mmHg 97%
    21:00 +25°C° 0.1 mm 1 mps 738 mmHg 97%
    22:00 +25°C° 0.1 mm 1 mps 739 mmHg 98%
    23:00 +25°C° 0.1 mm 1 mps 739 mmHg 98%
    Show more